• MPC Preparation (Info)

  • MPEC 2014-W34 : 2014 WF7

    The following Minor Planet Electronic Circular may be linked-to from your own Web pages, but must not otherwise be redistributed electronically.

    A form allowing access to any MPEC is at the bottom of this page.


    Read MPEC 2014-W33 Read MPEC 2014-W35


    M.P.E.C. 2014-W34                                Issued 2014 Nov. 20, 14:51 UT
    
         The Minor Planet Electronic Circulars contain information on unusual
             minor planets and routine data on comets.  They are published
       on behalf of Commission 20 of the International Astronomical Union by the
              Minor Planet Center, Smithsonian Astrophysical Observatory,
                              Cambridge, MA 02138, U.S.A.
    
                 Prepared using the Tamkin Foundation Computer Network
    
                                  MPC@CFA.HARVARD.EDU
                URL https://www.minorplanetcenter.net/    ISSN 1523-6714
    
                                       2014 WF7
    
    Observations:
         K14W07F* C2014 11 17.29801 02 17 55.099+19 18 56.58         21.0 wLEW034F51
         K14W07F  C2014 11 17.30995 02 17 53.737+19 19 21.61         21.0 wLEW034F51
         K14W07F  C2014 11 17.32190 02 17 52.357+19 19 46.55         21.0 wLEW034F51
         K14W07F  C2014 11 17.33398 02 17 50.958+19 20 11.75         21.0 wLEW034F51
         K14W07F KC2014 11 18.21801 02 16 20.96 +19 50 27.4          21.0 RoEW034291
         K14W07F KC2014 11 18.21993 02 16 20.77 +19 50 31.0          21.0 RoEW034291
         K14W07F KC2014 11 18.22185 02 16 20.51 +19 50 35.0          21.3 RoEW034291
         K14W07F KC2014 11 18.39082302 16 01.66 +19 56 17.0          20.6 RqEW034V37
         K14W07F KC2014 11 18.39584402 16 01.13 +19 56 26.9          21.0 RqEW034V37
         K14W07F KC2014 11 18.39981102 16 00.70 +19 56 34.9          21.1 RqEW034V37
         K14W07F KC2014 11 18.40284502 16 00.39 +19 56 41.0          21.1 RqEW034V37
         K14W07F KC2014 11 19.10870 02 14 53.67 +20 20 41.9          21.0 RoEW034291
         K14W07F KC2014 11 19.11043 02 14 53.52 +20 20 45.3          21.1 RoEW034291
         K14W07F KC2014 11 19.11219 02 14 53.35 +20 20 48.7          20.6 RoEW034291
         K14W07F KC2014 11 20.41835 02 12 44.91 +21 04 37.2          20.9 RoEW034291
         K14W07F KC2014 11 20.42013 02 12 44.73 +21 04 40.6          21.2 RoEW034291
         K14W07F KC2014 11 20.42193 02 12 44.55 +21 04 44.3          21.3 RoEW034291
    
    Observer details:
    291 LPL/Spacewatch II.  Observers T. H. Bressi, J. V. Scotti.  1.8-m f/2.7
        reflector + CCD.
    F51 Pan-STARRS 1, Haleakala.  Observers B. Gibson, T. Goggia, N. Primak,
        A. Schultz, M. Willman.  Measurers B. Bolin, K. Chambers, S. Chastel,
        L. Denneau, H. Flewelling, M. Huber, E. Magnier, E. Schunova, R. Wainscoat,
        C. Waters.  1.8-m Ritchey-Chretien + CCD.
    V37 McDonald Observatory-LCOGT ELP.  Observer T. Lister.  1.0-m f/8
        Ritchey-Chretien + CCD.
    
    Orbital elements:
    2014 WF7                                                 Earth MOID = 0.2680 AU
    Epoch 2014 Dec. 9.0 TT = JDT 2457000.5                  MPC
    M   2.14441              (2000.0)            P               Q
    n   0.52621078     Peri.   19.06493     +0.43209387     -0.88996353
    a   1.5194843      Node    45.64593     +0.79865686     +0.30253369
    e   0.1763720      Incl.   11.76611     +0.41885809     +0.34123055
    P   1.87           H   22.5           G   0.15           U   7
    Residuals in seconds of arc
    141117 F51  0.0   0.0     141118 291  0.4-  0.1+    141119 291  0.1+  0.1+
    141117 F51  0.1+  0.0     141118 V37  0.1+  0.3-    141119 291  0.3+  0.2-
    141117 F51  0.0   0.0     141118 V37  0.1+  0.4-    141120 291  0.0   0.0
    141117 F51  0.0   0.0     141118 V37  0.0   0.3-    141120 291  0.0   0.1-
    141118 291  0.2-  0.4+    141118 V37  0.1+  0.2-    141120 291  0.0   0.1+
    141118 291  0.2+  0.0     141119 291  0.4-  0.2+
    
    Ephemeris:
    2014 WF7                 a,e,i = 1.52, 0.18, 12                  q = 1.2515
    Date    TT    R. A. (2000) Decl.     Delta      r     Elong.  Phase     V
    2014 10 21    03 03 49.2 +04 13 28   0.3043  1.2839   158.6    16.4    21.3
    ...
    2014 11 05    02 40 31.0 +12 03 39   0.2749  1.2662   176.5     2.7    20.5
    ...
    2014 11 13    02 25 34.6 +16 48 09   0.2737  1.2594   169.0     8.6    20.8
    ...
    2014 11 19    02 15 03.0 +20 17 09   0.2793  1.2557   160.9    14.9    21.1
    2014 11 20    02 13 26.3 +20 50 49   0.2808  1.2552   159.6    15.9    21.1
    2014 11 21    02 11 52.7 +21 24 04   0.2824  1.2547   158.3    16.9    21.1
    ...
    2014 11 27    02 03 50.3 +24 33 30   0.2949  1.2525   150.8    22.6    21.4
    ...
    2014 12 05    01 57 22.7 +28 16 26   0.3181  1.2515   142.0    29.0    21.8
    ...
    2014 12 20    01 59 36.6 +33 47 59   0.3766  1.2553   128.9    37.6    22.4
    
    A. U. Tomatic                (C) Copyright 2014 MPC           M.P.E.C. 2014-W34
    

    Read MPEC 2014-W33 Read MPEC 2014-W35


    MPEC number:

    Enter an MPEC number in one of the following forms:

    • 1997-B01 (the full form)
    • J97B01 (the packed version of the full form)
    • B01 (the abbreviated form)